This demonstration page uses our WeatherBlox Daily Observations layout. Learn more.

Left ArrowRight Arrow

Hourly Observations for November 18, 2016

Temp ( °F °C ) Dew Point ( °F °C ) Humidity (%) Winds ( mph kmh ) Pressure ( in mb ) Visibility ( mi km ) Precip ( " mm )
12:51 am 00:51 Clear 39 3.9 15 -9.4 38 38 Calm 30.01 1016 10 16 0.00 0.00
1:51 am 01:51 Clear 39 3.9 15 -9.4 38 38 Calm 30.01 1016 10 16 0.00 0.03
2:51 am 02:51 Clear 39 3.9 16 -8.9 39 39 S 3 6 30.04 1017 10 16 0.00 0.00
3:51 am 03:51 Clear 36 2.2 16 -8.9 44 44 E 3 6 30.06 1018 10 16 0.00 0.00
4:51 am 04:51 Clear 34 1.1 16 -8.9 48 48 Calm 30.09 1019 10 16 0.00 0.00
5:51 am 05:51 Clear 35 1.7 17 -8.3 48 48 Calm 30.12 1020 10 16 0.00 0.00
6:51 am 06:51 Clear 32 0 17 -8.3 54 54 Calm 30.15 1021 10 16 0.00 0.00
7:51 am 07:51 Sunny 39 3.9 18 -7.8 43 43 W 3 6 30.18 1022 10 16 0.00 0.00
8:51 am 08:51 Sunny 47 8.3 17 -8.3 30 30 Calm 30.19 1023 10 16 0.00 0.00
9:51 am 09:51 Sunny 55 12.8 14 -10 20 20 Calm 30.21 1023 10 16 0.00 0.00
10:51 am 10:51 Sunny 58 14.4 12 -11.1 16 16 SE 8 13 30.21 1023 10 16 0.00 0.00
11:51 am 11:51 Sunny 61 16.1 13 -10.6 15 15 SE 7 11 30.19 1023 10 16 0.00 0.00
12:51 pm 12:51 Sunny 64 17.8 13 -10.6 13 13 SE 7 11 30.17 1022 10 16 0.00 0.00
1:51 pm 13:51 undefined 67 19.4 12 -11.1 12 12 SSE 6 9 30.15 1021 N/A 0.00 0.00
2:51 pm 14:51 Sunny 68 20 14 -10 12 12 VRB 6 9 30.12 1020 10 16 0.00 0.00
3:51 pm 15:51 Sunny 69 20.6 16 -8.9 13 13 SSW 9 15 30.12 1020 10 16 0.00 0.00
4:51 pm 16:51 Sunny 65 18.3 18 -7.8 16 16 SSW 5 7 30.14 1021 10 16 0.00 0.00
5:51 pm 17:51 Clear 59 15 19 -7.2 21 21 E 9 15 30.16 1022 10 16 0.00 0.00
6:51 pm 18:51 Clear 60 15.6 18 -7.8 19 19 E 10 17 30.19 1023 10 16 0.00 0.00
7:51 pm 19:51 Clear 58 14.4 17 -8.3 20 20 ESE 6 9 30.21 1023 10 16 0.00 0.00
8:51 pm 20:51 Clear 54 12.2 18 -7.8 24 24 SSE 10 17 30.23 1024 10 16 0.00 0.00
9:51 pm 21:51 Clear 56 13.3 16 -8.9 21 21 ESE 10 17 30.23 1024 10 16 0.01 0.25
10:51 pm 22:51 Clear 52 11.1 17 -8.3 25 25 SE 10 17 30.24 1024 10 16 0.00 0.00
11:51 pm 23:51 Clear 50 10 17 -8.3 27 27 ESE 8 13 30.25 1024 10 16 0.00 0.00

Powered by AerisWeather